STARLINK-36406

Last updated on Wed Mar 25 2026 00:02:05 GMT+0000 (Coordinated Universal Time)

1 67923U 26036V 26082.57356137 .00030602 00000+0 52452-3 0 9990 2 67923 43.0005 167.8927 0002811 249.0572 110.9987 15.50624435 5838
UTC large
Height (km)
Speed (km/s)
/
Latitude / Longitude
Inclination (degrees)
Orbital Period (minutes)
Azimuth
Elevation
Range (km)
Doppler Factor

Next 0 passes for location: London (51.5072 / 0.1276)

Sorry there are no passes over London.